This demonstration page uses our WeatherBlox Daily Observations layout. Learn more.

Left ArrowRight Arrow

39.92423, -83.80882

Hourly Observations for July 12, 2020

Temp ( °F °C ) Dew Point ( °F °C ) Humidity (%) Winds ( mph kmh ) Pressure ( in mb ) Visibility ( mi km ) Precip ( " mm )
12:56 am 00:56 Clear 68 20 63 17.2 84 84 WSW 7 11 29.83 1010 10 16 N/A
1:56 am 01:56 Clear 67 19.4 64 17.8 91 91 WSW 7 11 29.83 1010 10 16 N/A
2:56 am 02:56 Clear 65 18.3 64 17.8 97 97 WNW 5 7 29.82 1010 10 16 N/A
3:56 am 03:56 Clear 64 17.8 64 17.8 100 100 WSW 9 15 29.82 1010 10 16 N/A
4:56 am 04:56 Mostly Cloudy 66 18.9 66 18.9 100 100 WSW 6 9 29.82 1010 10 16 N/A
5:56 am 05:56 Clear 65 18.3 65 18.3 100 100 N N/A 29.81 1009 10 16 N/A
6:56 am 06:56 Sunny 65 18.3 65 18.3 100 100 ESE 3 6 29.81 1009 10 16 N/A
7:56 am 07:56 Cloudy with Light Rain 65 18.3 65 18.3 100 100 NE 7 11 29.80 1009 10 16 0.00 0.00
8:56 am 08:56 Cloudy 67 19.4 67 19.4 100 100 WSW 8 13 29.83 1010 10 16 0.00 0.00
9:21 am 09:21 Cloudy with Light Rain 66 19 66 19 100 100 W 10 17 29.85 1011 10 16 0.00 0.00
9:37 am 09:37 Cloudy with Rain 66 19 66 19 100 100 W 7 11 29.85 1011 4 6 N/A
9:47 am 09:47 Cloudy with Light Rain 66 19 66 19 100 100 N N/A 29.84 1010 4 6 N/A
9:56 am 09:56 Cloudy with Light Rain 67 19.4 67 19.4 100 100 SE 6 9 29.83 1010 5 8 N/A
10:56 am 10:56 Cloudy 69 20.6 69 20.6 100 100 SW 3 6 29.84 1010 10 16 0.02 0.51
11:18 am 11:18 Cloudy 70 21 70 21 100 100 VRB 5 7 29.83 1010 10 16 0.01 0.25
11:44 am 11:44 Cloudy 70 21 70 21 100 100 SSW 5 7 29.84 1010 10 16 0.02 0.51
11:56 am 11:56 Cloudy 70 21.1 69 20.6 97 97 WSW 6 9 29.85 1011 10 16 0.02 0.51
12:21 pm 12:21 Cloudy 72 22 70 21 94 94 VRB 3 6 29.83 1010 10 16 0.01 0.25
12:32 pm 12:32 Cloudy 73 23 70 21 89 89 WSW 6 9 29.83 1010 10 16 0.02 0.51
12:56 pm 12:56 Cloudy 73 22.8 68 20 84 84 SW 5 7 29.85 1011 10 16 0.02 0.51
1:03 pm 13:03 Cloudy 73 23 70 21 89 89 SSW 6 9 29.82 1010 10 16 N/A
1:56 pm 13:56 Sunny 77 25 69 20.6 77 77 SSW 7 11 29.83 1010 10 16 0.02 0.51
2:56 pm 14:56 Partly Cloudy 79 26.1 68 20 69 69 SSE 5 7 29.81 1010 10 16 0.01 0.25
3:47 pm 15:47 Mostly Cloudy with Nearby Thunderstorms 77 25 66 19 69 69 NNW 8 13 29.78 1009 10 16 0.01 0.25
3:56 pm 15:56 Partly Cloudy with Nearby Thunderstorms 77 25 67 19.4 71 71 NNW 8 13 29.82 1010 8 13 0.01 0.25
4:56 pm 16:56 Cloudy with Strong Thunderstorms 65 18.3 65 18.3 100 100 WSW 9 15 29.87 1011 6 10 N/A
5:48 pm 17:48 Mostly Cloudy with Light Rain 64 18 64 18 100 100 ESE 12 19 29.82 1010 10 16 N/A
5:56 pm 17:56 Mostly Cloudy 66 18.9 66 18.9 100 100 NE 8 13 29.83 1010 10 16 N/A
6:56 pm 18:56 Sunny 70 21.1 70 21.1 100 100 WNW 7 11 29.84 1010 10 16 0.01 0.25
7:56 pm 19:56 Sunny 72 22.2 66 18.9 82 82 N N/A 29.84 1011 10 16 N/A
8:56 pm 20:56 Sunny 69 20.6 69 20.6 100 100 N N/A 29.86 1011 10 16 0.01 0.25
9:56 pm 21:56 Clear 66 18.9 66 18.9 100 100 W 3 6 29.86 1011 10 16 0.01 0.25
10:56 pm 22:56 Clear 65 18.3 65 18.3 100 100 N N/A 29.88 1012 10 16 N/A
11:15 pm 23:15 Clear with Mist and Fog 64 18 64 18 100 100 N N/A 29.87 1012 1 2 N/A
11:25 pm 23:25 Clear with Mist and Fog 64 18 64 18 100 100 N N/A 29.87 1012 4 6 N/A
11:56 pm 23:56 Clear 64 17.8 64 17.8 100 100 W 5 7 29.89 1012 7 11 N/A

Powered by AerisWeather